Terminal Aerodrome Forecast
Issued by NWS Pittsburgh, PA

Current Version | Previous Version | Graphics & Text | Print | Product List | Glossary On
Versions: 1 2 3 4 5 6 7 8 9 10 11 12 13 14 15 16 17 18 19 20 21 22 23 24 25 26 27 28 29 30
000
FTUS41 KPBZ 280020 AAA
TAFPIT
TAF AMD
KPIT 280020Z 2800/2906 26008KT P6SM BKN050
     FM280030 22025G38KT 2SM TSRA BKN030CB
     FM280115 25006KT P6SM SCT080
     FM280400 28004KT P6SM SCT080
     FM281400 20004KT P6SM SCT250=

USA.gov is the U.S. government's official web portal to all federal, state and local government web resources and services.